This is the latest recevied weather packets stored in our database for station/object CE3TDM-12. If no packets are shown the sender has not sent any weather packets the latest 10 day(s).
| Time | Temp. | Humidity | Pressure | Rain* | Wind** | Luminosity | Snow |
|---|---|---|---|---|---|---|---|
| 1777726550 | 19.44° C | 33% | 781.3 hPa | - | - | - | - |
| 1777726249 | 18.33° C | 33% | 781.2 hPa | - | - | - | - |
| 1777725946 | 17.78° C | 33% | 781.3 hPa | - | - | - | - |
| 1777725645 | 17.22° C | 33% | 781.3 hPa | - | - | - | - |
| 1777725345 | 16.11° C | 33% | 781.2 hPa | - | - | - | - |
| 1777725045 | 15° C | 34% | 781.3 hPa | - | - | - | - |
| 1777724744 | 13.33° C | 35% | 781.3 hPa | - | - | - | - |
| 1777724444 | 11.11° C | 36% | 781.2 hPa | - | - | - | - |
| 1777720103 | 10° C | 35% | 780.9 hPa | - | - | - | - |
| 1777719802 | 9.44° C | 35% | 780.8 hPa | - | - | - | - |
| 1777719502 | 10° C | 34% | 780.9 hPa | - | - | - | - |
| 1777719201 | 10° C | 35% | 780.8 hPa | - | - | - | - |
| 1777718900 | 10° C | 35% | 780.7 hPa | - | - | - | - |
| 1777718598 | 10° C | 35% | 780.8 hPa | - | - | - | - |
| 1777718297 | 10° C | 35% | 780.8 hPa | - | - | - | - |
| 1777717996 | 9.44° C | 35% | 780.8 hPa | - | - | - | - |
| 1777717696 | 9.44° C | 35% | 780.8 hPa | - | - | - | - |
| 1777717396 | 9.44° C | 35% | 780.9 hPa | - | - | - | - |
| 1777717095 | 9.44° C | 35% | 780.9 hPa | - | - | - | - |
| 1777716795 | 9.44° C | 35% | 780.9 hPa | - | - | - | - |
| 1777716494 | 9.44° C | 35% | 780.9 hPa | - | - | - | - |
| 1777716194 | 9.44° C | 35% | 780.8 hPa | - | - | - | - |
| 1777715893 | 9.44° C | 35% | 780.9 hPa | - | - | - | - |
| 1777715593 | 9.44° C | 35% | 780.8 hPa | - | - | - | - |
| 1777715292 | 9.44° C | 35% | 780.8 hPa | - | - | - | - |
* Rain since midnight (hover to see other rain measurements)
** Current wind speed in m/s (hover to see current wind gust speed)